Regional Weather Roundup
Issued by NWS

Home | Current Version | Previous Version | Graphics & Text | Print | Product List | Glossary Off
Versions: 1 2 3 4 5 6 7 8 9 10 11 12 13 14 15 16 17 18 19 20 21 22 23 24 25 26 27 28 29 30 31 32 33 34 35 36 37 38 39 40 41 42 43 44 45 46 47 48 49 50

000
ASUS43 KMKX 241511
RWRWI

WISCONSIN REGIONAL WEATHER ROUNDUP
NATIONAL WEATHER SERVICE MILWAUKEE/SULLIVAN WI
1000 AM CDT MON APR 24 2017

NOTE: "FAIR" INDICATES FEW OR NO CLOUDS BELOW 12,000 FEET WITH NO
SIGNIFICANT WEATHER AND/OR OBSTRUCTIONS TO VISIBILITY.

WIZ001-002-006>008-014>016-023>028-241600-
NORTHWEST WISCONSIN

CITY           SKY/WX    TMP DP  RH WIND       PRES   REMARKS
SUPERIOR ARPT  CLOUDY    38  28  68 E13G23    29.90F WCI  30
ASHLAND        CLOUDY    40  27  59 NE10      29.92F WCI  33
HAYWARD        CLOUDY    47  33  58 S9        29.86F
SIREN          CLOUDY    51  37  57 SE9       29.81F
CUMBERLAND     PTSUNNY   46  34  61 SE10      29.85F
RICE LAKE      PTSUNNY   47  35  62 SE12      29.88F
CHETEK         PTSUNNY   48  37  64 SE9       29.88F
LADYSMITH      MOSUNNY   48  34  58 SE6       29.92S
EAU CLAIRE     MOSUNNY   52  37  56 SE8       29.87F
MENOMONIE      SUNNY     53  39  57 E13       29.86F
NEW RICHMOND   MOSUNNY   56  37  49 SE9G17    29.81F
OSCEOLA        MOSUNNY   57  41  56 SE12      29.82F
$$

WIZ003>005-009-010-017-018-241600-
NORTH CENTRAL WISCONSIN

CITY           SKY/WX    TMP DP  RH WIND       PRES   REMARKS
MANITOWISH WTR MOSUNNY   42  29  60 S10G16    29.92F
ARBOR VITAE    CLOUDY    42  30  62 S10       29.93F
WOODRUFF       CLOUDY    42  30  62 S10       29.93F
RHINELANDER    CLOUDY    45  31  58 SE7       29.95F
EAGLE RIVER    CLOUDY    39  27  60 SE9       29.96S WCI  33
LAND O LAKES   CLOUDY    40  28  63 SE10      29.97F WCI  33
PHILLIPS       PTSUNNY   44  32  61 SE8       29.91F
TOMAHAWK       MOSUNNY   44  31  61 SE3       29.95F
MEDFORD        MOSUNNY   43  33  67 SE7       29.93F
MERRILL        CLOUDY    44  32  63 S8        29.97F
$$

WIZ029-030-035-036-043>047-241600-
CENTRAL WISCONSIN

CITY           SKY/WX    TMP DP  RH WIND       PRES   REMARKS
WAUSAU         MOSUNNY   47  32  56 SE12      29.95F
MOSINEE        PTSUNNY   45  34  65 SE10      29.98F
MARSHFIELD     MOSUNNY   48  34  58 S9        29.94F
STEVENS POINT  CLOUDY    45  32  60 SE9       29.98F
WAUPACA        MOSUNNY   49  36  61 E7        30.01F
WAUTOMA        NOT AVBL
WISC RAPIDS    MOSUNNY   51  35  54 SE9       29.97F
CAMP DOUGLAS   PTSUNNY   52  37  58 SE6       29.94F
$$

WIZ011>013-019>022-031-037>040-048>050-241600-
NORTHEAST WISCONSIN

CITY           SKY/WX    TMP DP  RH WIND       PRES   REMARKS
ANTIGO         CLOUDY    43  32  64 S12       29.98F
SHAWANO        CLOUDY    47  37  66 SE5       30.03S
OCONTO         CLOUDY    46  37  69 S3        30.03F
STURGEON BAY   CLOUDY    49  39  68 S13       30.03F
GREEN BAY      CLOUDY    50  40  68 SE3       30.02F
MANITOWOC      CLOUDY    49  39  68 SE15      30.03F
APPLETON       MOSUNNY   46  34  61 E5        30.00F
CLINTONVILLE   CLOUDY    46  34  61 CALM      30.02S
OSHKOSH        MOSUNNY   54  38  54 SE6       29.99F
$$

WIZ032>034-041-042-053>061-241600-
SOUTHWEST WISCONSIN

CITY           SKY/WX    TMP DP  RH WIND       PRES   REMARKS
LA CROSSE      PTSUNNY   59  39  47 S9        29.89F
SPARTA         CLOUDY    56  37  48 S8        29.92F
VIROQUA        PTSUNNY   55  37  52 SE9       29.92F
BOSCOBEL       CLOUDY    62  32  32 S9        29.93F
PRAIRIE DU CHI PTSUNNY   62  33  33 SE6       29.90F
PLATTEVILLE    MOSUNNY   62  31  31 S18       29.96F
$$

WIZ056-057-062-063-064-067-068-241600-
SOUTH CENTRAL WISCONSIN

CITY           SKY/WX    TMP DP  RH WIND       PRES   REMARKS
REEDSBURG      CLOUDY    55  37  50 S7        29.96F
BARABOO/DELLS  CLOUDY    56  34  44 S9        29.96F
LONE ROCK      CLOUDY    58  40  51 E10       29.95F
MINERAL POINT  MOSUNNY   61  32  33 S9        29.96F
MADISON        PTSUNNY   54  37  52 S12       29.99F
MIDDLETON      MOSUNNY   58  37  44 S10       29.99F
WATERTOWN      SUNNY     58  39  50 S8        30.00F
MONROE         SUNNY     59  37  44 SE10      29.98F
JANESVILLE     PTSUNNY   61  39  44 S7        29.99F
$$

WIZ051-052-058>065-066-070>072-241600-
SOUTHEAST WISCONSIN

CITY           SKY/WX    TMP DP  RH WIND       PRES   REMARKS
MILWAUKEE      MOSUNNY   53  41  63 SE6       30.03F
WAUKESHA       SUNNY     57  34  41 S9        30.02F
MILWAUKEE/TIMM SUNNY     54  34  47 SE5       30.03F
RACINE         SUNNY     52  40  63 SE5       30.04F
KENOSHA        SUNNY     56  40  55 SE5       30.02F
FOND DU LAC    MOSUNNY   58  38  47 S12       29.99F
SHEBOYGAN      CLOUDY    51  43  74 S12       30.03R
WEST BEND      SUNNY     55  36  47 S8        30.01F
JUNEAU         SUNNY     55  39  54 SE8       30.01F
$$

LSZ147-162-241600-
LAKE SUPERIOR

STATION/POSITION TIME  TEMP    WIND        PRES    WAVE
                       AIR SEA DIR/SP/G            HT/PER
                 (UTC) (F)     (DEG/KT/KT) (MB)    (FT/S)
DEVILS ISLAND    1500   35      80/ 24/ 26 1014.8F
SAXON HARBOR     1430   37      50/ 13/ 15 1013.2F
$$

LMZ867-665-643>646-241600-
LAKE MICHIGAN

STATION/POSITION TIME  TEMP    WIND        PRES    WAVE
                       AIR SEA DIR/SP/G            HT/PER
                 (UTC) (F)     (DEG/KT/KT) (MB)    (FT/S)
CHAMBERS ISLAND  1440   41      10/  8/  9 1017.3F
N MID LAKE BUOY  1450   37 37   80/ 10/ 12 1019.5F   2/ 4
NORTHPORT PIER   1440   40      90/  8/ 12 1017.9S
KEWAUNEE LAKESHO 1448   44     150/  5/  8 1016.7F
SHEBOYGAN LAKESH 1500   43     180/ 12/ 13 1017.2F
PORT WASHINGTON  1440   49     170/  4/  6 1017.9F
MILWAUKEE LAKESH 1450   45      70/  4/  4   N/A
S MID LAKE BUOY  1350   42 40   70/  8/  8 1017.8F   2/ 6
KENOSHA   LAKESH 1500   45      90/  3/  4 1016.9
$$

TC  - TEMPERATURE IN CELSIUS
VSB - VISIBILITY IN STATUTE MILES
WCI - WIND CHILL INDEX
HX  - HEAT INDEX




USA.gov is the U.S. government's official web portal to all federal, state and local government web resources and services.